Waarnemingen

Advertentie
Mijn weer
Huesca, Spanje (8094): temperatuur & dauwpunt: 11.01.2019 01:00:00 - 17.01.2019 01:00:00 (CET)Huesca, Spanje (8094): windsnelheid: 11.01.2019 01:00:00 - 17.01.2019 01:00:00 (CET)Huesca, Spanje (8094): windrichting: 11.01.2019 01:00:00 - 17.01.2019 01:00:00 (CET)Huesca, Spanje (8094): luchtdruk: 11.01.2019 01:00:00 - 17.01.2019 01:00:00 (CET)Huesca, Spanje (8094): zicht: 11.01.2019 01:00:00 - 17.01.2019 01:00:00 (CET)Huesca, Spanje (8094): neerslag: 11.01.2019 01:00:00 - 17.01.2019 01:00:00 (CET)
Datum & Tijd tt [°C] td [°C] ff [km/u] ff [kn] dd ppp [hPa] vv [km] rr [mm]
17.01.2019 01:00:00 1,4 1,4 8 4 WNW 1019,3 - -
17.01.2019 00:00:00 0,9 0,9 5 3 W 1019,5 - 0,0
16.01.2019 23:00:00 1,2 1,2 5 3 WNW 1019,5 - 0,0
16.01.2019 22:00:00 0,8 0,8 9 5 WNW 1019,6 - -
16.01.2019 21:00:00 1,3 1,2 4 2 W 1019,0 - 0,0
16.01.2019 20:00:00 1,8 1,7 4 2 NW 1018,9 - 0,0
16.01.2019 19:00:00 2,2 1,9 4 2 NW 1018,4 - -
16.01.2019 18:00:00 2,9 2,3 4 2 WNW 1017,8 - 0,0
16.01.2019 17:00:00 4,4 2,9 4 2 ZW 1017,4 - 0,0
16.01.2019 16:00:00 6,7 3,8 4 2 ZW 1016,8 50 -
16.01.2019 15:00:00 8,0 4,0 5 3 WZW 1016,8 - 0,0
16.01.2019 14:00:00 9,3 4,1 4 2 WZW 1016,9 - 0,0
16.01.2019 13:00:00 8,7 2,3 5 3 ZO 1017,9 50 -
16.01.2019 12:00:00 7,3 0,7 4 2 ZZO 1019,1 - 0,0
16.01.2019 11:00:00 4,6 1,1 8 4 ZO 1020,0 - 0,0
16.01.2019 10:00:00 2,5 -0,1 5 3 OZO 1020,3 75 -
16.01.2019 09:00:00 0,5 -1,0 4 2 O 1020,6 - 0,0
16.01.2019 08:00:00 0,3 -1,3 5 3 ONO 1020,4 - 0,0
16.01.2019 07:00:00 1,1 -0,8 8 4 O 1020,2 - -
16.01.2019 06:00:00 1,9 -0,4 5 3 O 1020,1 - 0,0
16.01.2019 05:00:00 1,2 -1,0 5 3 ONO 1020,8 - 0,0
16.01.2019 04:00:00 1,8 0,2 8 4 ONO 1021,1 - -
16.01.2019 03:00:00 1,9 0,9 5 3 NO 1021,4 - 0,0
16.01.2019 02:00:00 2,5 1,0 2 1 NNW 1021,5 - 0,0
16.01.2019 01:00:00 3,4 2,2 8 4 ONO 1021,7 - -
16.01.2019 00:00:00 3,3 2,1 8 4 ONO 1022,1 - 0,0
15.01.2019 23:00:00 3,1 2,7 8 4 ONO 1022,3 - 0,0
15.01.2019 22:00:00 2,7 2,4 8 4 ONO 1022,4 - -
15.01.2019 21:00:00 2,5 1,3 8 4 O 1022,4 - 0,0
15.01.2019 20:00:00 3,4 2,5 9 5 O 1022,0 - 0,0
15.01.2019 19:00:00 4,9 2,4 8 4 OZO 1021,4 - -
15.01.2019 18:00:00 7,2 3,4 5 3 Z 1020,5 - 0,0
15.01.2019 17:00:00 8,9 3,5 2 1 WNW 1020,1 - 0,0
15.01.2019 16:00:00 9,8 3,3 5 3 WZW 1020,1 75 -
15.01.2019 15:00:00 10,7 3,5 5 3 ZW 1020,1 - 0,0
15.01.2019 14:00:00 10,0 3,9 4 2 Z 1021,0 - 0,0
15.01.2019 13:00:00 9,0 3,6 8 4 ZZW 1022,1 75 -
15.01.2019 12:00:00 7,4 2,5 8 4 ZO 1023,2 - 0,0
15.01.2019 11:00:00 4,8 1,3 9 5 OZO 1024,0 - 0,0
15.01.2019 10:00:00 2,9 1,1 9 5 ZO 1023,9 75 -
15.01.2019 09:00:00 1,1 -0,4 11 6 OZO 1023,7 - 0,0
15.01.2019 08:00:00 0,9 -0,9 8 4 O 1023,4 - 0,0
15.01.2019 07:00:00 0,9 0,2 9 5 O 1023,1 - -
15.01.2019 06:00:00 1,2 0,0 2 1 NNO 1022,8 - 0,0
15.01.2019 05:00:00 1,9 0,9 2 1 ONO 1022,8 - 0,0
15.01.2019 04:00:00 2,3 1,1 4 2 NO 1022,8 - -
15.01.2019 03:00:00 2,5 0,9 2 1 W 1023,0 - 0,0
15.01.2019 02:00:00 3,6 1,5 4 2 WNW 1022,6 - 0,0
15.01.2019 01:00:00 4,8 2,3 5 3 W 1022,3 - -
15.01.2019 00:00:00 4,5 1,9 4 2 N 1022,7 - 0,0
14.01.2019 23:00:00 5,4 2,6 8 4 W 1022,0 - 0,0
14.01.2019 22:00:00 5,6 2,6 5 3 WNW 1021,6 - -
14.01.2019 21:00:00 6,7 2,2 9 5 WZW 1020,8 - 0,0
14.01.2019 20:00:00 8,0 1,6 8 4 WZW 1020,0 - 0,0
14.01.2019 19:00:00 9,2 2,3 5 3 WNW 1019,3 - -
14.01.2019 18:00:00 11,2 2,5 9 5 W 1018,6 - 0,0
14.01.2019 17:00:00 13,7 3,7 8 4 WZW 1017,9 - 0,0
14.01.2019 16:00:00 15,2 4,5 9 5 NW 1017,3 75 -
14.01.2019 15:00:00 15,8 4,5 9 5 WNW 1017,4 - 0,0
14.01.2019 14:00:00 15,3 2,8 5 3 N 1018,1 - 0,0
14.01.2019 13:00:00 13,9 3,6 11 6 O 1018,9 75 -
14.01.2019 12:00:00 13,0 3,1 11 6 NW 1019,4 - 0,0
14.01.2019 11:00:00 11,2 3,0 9 5 WNW 1020,2 - 0,0
14.01.2019 10:00:00 8,9 2,2 13 7 NW 1020,2 75 -
14.01.2019 09:00:00 6,3 2,0 11 6 WNW 1020,6 - 0,0
14.01.2019 08:00:00 6,3 2,2 13 7 W 1020,2 - 0,0
14.01.2019 07:00:00 6,4 1,7 8 4 W 1019,9 - -
14.01.2019 06:00:00 6,6 2,1 8 4 NW 1019,6 - 0,0
14.01.2019 05:00:00 6,8 2,7 9 5 NNW 1019,9 - 0,0
14.01.2019 04:00:00 6,7 3,5 8 4 WZW 1020,8 - -
14.01.2019 03:00:00 6,8 3,6 9 5 W 1021,7 - 0,0
14.01.2019 02:00:00 7,0 3,2 11 6 W 1021,6 - 0,0
14.01.2019 01:00:00 6,7 2,9 8 4 W 1022,5 - -
14.01.2019 00:00:00 6,3 3,1 8 4 WZW 1022,9 - 0,0
13.01.2019 23:00:00 6,5 3,3 8 4 W 1023,1 - 0,0
13.01.2019 22:00:00 6,4 3,4 8 4 WNW 1023,3 - -
13.01.2019 21:00:00 6,6 3,4 11 6 WZW 1023,2 - 0,0
13.01.2019 20:00:00 7,8 3,1 5 3 W 1023,2 - 0,0
13.01.2019 19:00:00 8,5 2,9 8 4 W 1023,2 - -
13.01.2019 18:00:00 9,8 3,7 5 3 ZW 1022,8 - 0,0
13.01.2019 17:00:00 12,4 3,9 9 5 W 1022,2 - 0,0
13.01.2019 16:00:00 14,4 4,1 9 5 W 1021,6 75 -
13.01.2019 15:00:00 14,6 3,4 11 6 WNW 1021,8 - 0,0
13.01.2019 14:00:00 14,6 3,1 8 4 W 1022,7 - 0,0
13.01.2019 13:00:00 12,0 4,0 5 3 W 1024,1 75 -
13.01.2019 12:00:00 9,1 2,9 9 5 WZW 1025,6 - 0,0
13.01.2019 11:00:00 6,1 2,0 4 2 WZW 1026,6 - 0,0
13.01.2019 10:00:00 1,5 -0,7 4 2 ZW 1027,2 75 -
13.01.2019 09:00:00 0,4 -1,8 4 2 O 1027,2 - 0,0
13.01.2019 08:00:00 -0,2 -2,6 4 2 ONO 1027,4 - 0,0
13.01.2019 07:00:00 -0,6 -2,5 4 2 ONO 1027,1 - -
13.01.2019 06:00:00 -0,4 -2,8 8 4 ONO 1027,1 - 0,0
13.01.2019 05:00:00 1,5 -1,9 4 2 ONO 1026,6 - 0,0
13.01.2019 04:00:00 2,0 -1,3 8 4 W 1026,7 - -
13.01.2019 03:00:00 1,7 -1,7 5 3 W 1027,0 - 0,0
13.01.2019 02:00:00 1,8 -2,0 5 3 WNW 1027,2 - 0,0
13.01.2019 01:00:00 1,2 -2,7 4 2 W 1028,0 - -
13.01.2019 00:00:00 1,4 -2,6 5 3 WNW 1028,2 - 0,0
12.01.2019 23:00:00 1,5 -2,1 5 3 W 1028,3 - 0,0
12.01.2019 22:00:00 2,6 -1,9 5 3 WZW 1028,0 - -
12.01.2019 21:00:00 3,5 -1,3 8 4 W 1027,5 - 0,0
12.01.2019 20:00:00 4,5 -0,7 8 4 W 1027,1 - 0,0
12.01.2019 19:00:00 5,5 -0,4 8 4 W 1026,6 - -
12.01.2019 18:00:00 7,2 -0,1 5 3 W 1025,7 - 0,0
12.01.2019 17:00:00 9,3 0,5 5 3 WZW 1024,9 - 0,0
12.01.2019 16:00:00 10,8 -0,4 8 4 W 1024,7 75 -
12.01.2019 15:00:00 10,2 0,5 5 3 WNW 1025,3 - 0,0
12.01.2019 14:00:00 8,2 0,2 5 3 WZW 1026,6 - 0,0
12.01.2019 13:00:00 5,4 -1,1 5 3 W 1028,1 50 -
12.01.2019 12:00:00 3,7 -1,3 5 3 W 1029,5 - 0,0
12.01.2019 11:00:00 1,6 -2,0 4 2 O 1030,0 - 0,0
12.01.2019 10:00:00 -1,0 -3,4 5 3 ONO 1030,4 55 -
12.01.2019 09:00:00 -3,0 -4,3 5 3 NO 1030,4 - 0,0
12.01.2019 08:00:00 -3,1 -4,7 4 2 ZO 1029,8 - 0,0
12.01.2019 07:00:00 -1,8 -4,5 4 2 OZO 1029,3 - -
12.01.2019 06:00:00 -0,7 -3,4 5 3 NW 1028,9 - 0,0
12.01.2019 05:00:00 -0,5 -3,2 5 3 WNW 1029,3 - 0,0
12.01.2019 04:00:00 -0,9 -3,9 4 2 WNW 1029,6 - -
12.01.2019 03:00:00 -0,6 -3,8 9 5 WNW 1029,0 - 0,0
12.01.2019 02:00:00 -0,6 -3,8 8 4 W 1029,1 - 0,0
12.01.2019 01:00:00 -0,6 -4,0 8 4 W 1029,0 - -
12.01.2019 00:00:00 -0,7 -4,2 5 3 W 1028,8 - 0,0
11.01.2019 23:00:00 -0,4 -4,3 8 4 W 1028,5 - 0,0
11.01.2019 22:00:00 0,1 -4,4 9 5 WZW 1028,2 - -
11.01.2019 21:00:00 0,6 -4,2 8 4 W 1027,6 - 0,0
11.01.2019 20:00:00 1,7 -4,2 8 4 WZW 1026,9 - 0,0
11.01.2019 19:00:00 3,2 -4,3 5 3 W 1025,8 - -
11.01.2019 18:00:00 5,2 -4,7 5 3 W 1024,5 - 0,0
11.01.2019 17:00:00 7,7 -5,4 8 4 W 1023,6 - 0,0
11.01.2019 16:00:00 8,0 -8,1 8 4 WZW 1023,4 65 -
11.01.2019 15:00:00 8,3 -7,9 5 3 ZW 1023,4 - 0,0
11.01.2019 14:00:00 7,7 -7,6 4 2 ZZW 1023,7 - 0,0
11.01.2019 13:00:00 5,9 -6,4 5 3 WZW 1024,7 55 -
11.01.2019 12:00:00 3,3 -5,4 4 2 W 1025,6 - 0,0
11.01.2019 11:00:00 0,3 -5,3 5 3 ZZW 1026,1 - 0,0
11.01.2019 10:00:00 -2,0 -6,7 4 2 W 1026,0 75 -
11.01.2019 09:00:00 -3,1 -6,9 4 2 W 1025,5 - 0,0
11.01.2019 08:00:00 -3,3 -7,1 5 3 WNW 1025,0 - 0,0
11.01.2019 07:00:00 -3,6 -7,2 4 2 W 1024,6 - -
11.01.2019 06:00:00 -3,3 -6,9 8 4 W 1024,2 - 0,0
11.01.2019 05:00:00 -3,7 -7,1 4 2 WZW 1024,7 - 0,0
11.01.2019 04:00:00 -3,4 -6,9 5 3 WZW 1024,9 - -
11.01.2019 03:00:00 -2,4 -8,1 8 4 W 1024,2 - 0,0
11.01.2019 02:00:00 -1,4 -9,5 8 4 WNW 1023,4 - 0,0
11.01.2019 01:00:00 -1,6 -10,4 8 4 NW 1023,5 - -

tt = temperatuur
td = dauwpunt
ff = windsnelheid
dd = windrichting
ppp = luchtdruk
vv = zicht
rr = neerslag

Weerstations in de omgeving